EW8310 Weather Reports


Display with metric or nautical units.
time (UTC)temp
F
wind
direction
speed
MPH
gust
MPH
rain 1hr
in
rain 24hr
in
rain mn
in
humidity
%
barometer
mb
20260903054659 81 8 0.0 0.0 0.00 0.00 0.00 59 1011.0
20260903054158 81 8 0.0 0.0 0.00 0.00 0.00 58 1011.0
20260903053659 81 8 0.0 0.0 0.00 0.00 0.00 60 1011.1
20260903053158 81 8 0.0 0.0 0.00 0.00 0.00 60 1011.2
20260903052659 81 8 0.0 0.0 0.00 0.00 0.00 60 1011.2
20260903052159 81 8 0.0 0.0 0.00 0.00 0.00 60 1011.1
20260903051658 80 8 0.0 1.0 0.00 0.00 0.00 60 1011.1
20260903051158 80 13 0.0 1.0 0.00 0.00 0.00 60 1011.3
20260903050701 80 54 0.0 0.0 0.00 0.00 0.00 60 1011.3
20260903050157 81 54 0.0 0.0 0.00 0.00 0.00 59 1011.3
20260903045919 81 54 0.0 0.0 0.00 0.00 0.00 58 1011.2
20260903045158 82 54 0.0 0.0 0.00 0.00 0.00 57 1011.2
20260903044916 82 54 0.0 0.0 0.00 0.00 0.00 56 1011.1
20260903044912 82 54 0.0 0.0 0.00 0.00 0.00 56 1011.1
20260903044710 82 54 0.0 0.0 0.00 0.00 0.00 56 1011.1
20260903044649 82 54 0.0 0.0 0.00 0.00 0.00 56 1011.1
20260903044203 82 54 0.0 0.0 0.00 0.00 0.00 56 1011.1
20260903043657 82 54 0.0 0.0 0.00 0.00 0.00 55 1011.1
20260903043157 82 54 0.0 0.0 0.00 0.00 0.00 54 1011.1
20260903042700 82 54 0.0 0.0 0.00 0.00 0.00 55 1010.9
20260903042420 83 52 0.0 0.0 0.00 0.00 0.00 54 1011.0
20260903042200 83 52 0.0 0.0 0.00 0.00 0.00 54 1011.0
20260903041657 83 34 0.0 1.0 0.00 0.00 0.00 54 1010.9
20260903041156 83 34 0.0 1.0 0.00 0.00 0.00 54 1010.9
20260903040657 83 41 0.0 2.0 0.00 0.00 0.00 55 1011.0
20260903040157 83 42 0.0 2.0 0.00 0.00 0.00 54 1011.0
20260903035656 83 44 0.0 1.0 0.00 0.00 0.00 55 1011.0
20260903035157 82 28 0.0 1.0 0.00 0.00 0.00 54 1010.9
20260903034700 82 97 0.0 0.0 0.00 0.00 0.00 55 1010.9
20260903034422 82 97 0.0 0.0 0.00 0.00 0.00 56 1010.9
20260903033915 82 104 0.0 0.0 0.00 0.00 0.00 56 1010.9
20260903033701 82 104 0.0 0.0 0.00 0.00 0.00 56 1010.9
20260903033156 82 104 0.0 0.0 0.00 0.00 0.00 57 1010.8
20260903032655 82 116 0.0 0.0 0.00 0.00 0.00 58 1010.7
20260903032423 82 116 0.0 0.0 0.00 0.00 0.00 59 1010.5
20260903031655 82 116 0.0 0.0 0.00 0.00 0.00 59 1010.4
20260903031156 82 116 0.0 0.0 0.00 0.00 0.00 58 1010.3
20260903030655 82 116 0.0 0.0 0.00 0.00 0.00 59 1010.3
20260903030156 81 116 0.0 0.0 0.00 0.00 0.00 59 1010.2
20260903025655 81 116 0.0 0.0 0.00 0.00 0.00 60 1010.1
20260903025154 81 116 0.0 0.0 0.00 0.00 0.00 60 1010.0
20260903024655 82 116 0.0 0.0 0.00 0.00 0.00 61 1010.0
20260903024155 82 116 0.0 0.0 0.00 0.00 0.00 60 1010.0
20260903023655 82 117 0.0 0.0 0.00 0.00 0.00 59 1010.0
20260903023642 83 117 0.0 0.0 0.00 0.00 0.00 58 1010.0
20260903023211 83 117 0.0 0.0 0.00 0.00 0.00 58 1010.0
20260903022655 83 207 0.0 0.0 0.00 0.00 0.00 58 1009.8
20260903022154 82 259 0.0 0.0 0.00 0.00 0.00 58 1009.7
20260903021655 82 258 0.0 0.0 0.00 0.00 0.00 60 1009.7
20260903021154 82 258 0.0 0.0 0.00 0.00 0.00 59 1009.7
20260903020653 83 258 0.0 0.0 0.00 0.00 0.00 57 1009.9
20260903020154 83 258 0.0 0.0 0.00 0.00 0.00 57 1009.9
20260903015914 83 259 0.0 0.0 0.00 0.00 0.00 56 1009.9
20260903015153 84 258 0.0 0.0 0.00 0.00 0.00 54 1009.9
20260903014654 84 259 0.0 0.0 0.00 0.00 0.00 55 1009.9
20260903014414 85 258 0.0 0.0 0.00 0.00 0.00 53 1009.9
20260903014206 85 258 0.0 0.0 0.00 0.00 0.00 53 1009.9
20260903013914 85 258 0.0 0.0 0.00 0.00 0.00 52 1009.8
20260903013153 86 259 0.0 0.0 0.00 0.00 0.00 50 1009.8
20260903012653 86 258 0.0 0.0 0.00 0.00 0.00 50 1009.8
20260903012152 86 258 0.0 0.0 0.00 0.00 0.00 50 1009.7
20260903011911 86 258 0.0 0.0 0.00 0.00 0.00 49 1009.7
20260903011659 86 258 0.0 0.0 0.00 0.00 0.00 49 1009.7
20260903011153 86 258 0.0 0.0 0.00 0.00 0.00 47 1009.7
20260903010652 87 279 0.0 0.0 0.00 0.00 0.00 48 1009.7
20260903010153 86 257 0.0 3.0 0.00 0.00 0.00 48 1009.7
20260903005652 86 295 0.0 3.0 0.00 0.00 0.00 48 1009.6
20260903005153 87 276 0.0 4.0 0.00 0.00 0.00 47 1009.7
20260903004651 87 275 1.0 4.0 0.00 0.00 0.00 47 1009.7
20260903004152 88 250 0.0 0.0 0.00 0.00 0.00 47 1009.7
20260903003653 88 214 0.0 0.0 0.00 0.00 0.00 46 1009.6
20260903003152 88 214 0.0 3.0 0.00 0.00 0.00 46 1009.7
20260903002855 88 196 0.0 6.0 0.00 0.00 0.00 44 1009.6
20260903002737 88 197 0.0 4.0 0.00 0.00 0.00 45 1009.7
20260903001913 88 238 1.0 6.0 0.00 0.00 0.00 44 1009.7
20260903001638 88 223 2.0 7.0 0.00 0.00 0.00 44 1009.6
20260903000651 89 223 1.0 7.0 0.00 0.00 0.00 45 1009.5
20260903000355 89 207 1.0 6.0 0.00 0.00 0.00 44 1009.5
20260903000241 89 223 1.0 6.0 0.00 0.00 0.00 45 1009.5
20260902235151 89 241 1.0 6.0 0.00 0.00 0.00 43 1009.6
20260902234650 90 244 0.0 6.0 0.00 0.00 0.00 43 1009.6
20260902234410 90 166 2.0 10.0 0.00 0.00 0.00 43 1009.5
20260902233650 91 216 2.0 10.0 0.00 0.00 0.00 42 1009.6
20260902233150 91 210 1.0 11.0 0.00 0.00 0.00 41 1009.4
20260902232651 92 265 2.0 11.0 0.00 0.00 0.00 41 1009.6
20260902232411 92 274 3.0 12.0 0.00 0.00 0.00 41 1009.7
20260902231650 92 234 4.0 12.0 0.00 0.00 0.00 42 1009.7
20260902231150 91 212 5.0 11.0 0.00 0.00 0.00 42 1009.6
20260902230650 90 219 2.0 11.0 0.00 0.00 0.00 43 1009.7
20260902230636 90 257 2.0 10.0 0.00 0.00 0.00 43 1009.8
20260902225650 90 204 4.0 10.0 0.00 0.00 0.00 43 1009.9
20260902225150 90 207 2.0 10.0 0.00 0.00 0.00 43 1009.9
20260902224650 91 250 3.0 10.0 0.00 0.00 0.00 43 1010.0
20260902224149 91 255 5.0 12.0 0.00 0.00 0.00 43 1010.0
20260902223650 91 290 4.0 13.0 0.00 0.00 0.00 43 1009.9
20260902223149 91 203 5.0 13.0 0.00 0.00 0.00 44 1010.0
20260902222650 90 227 4.0 10.0 0.00 0.00 0.00 45 1009.9
20260902222149 89 264 3.0 11.0 0.00 0.00 0.00 43 1010.0
20260902221649 89 310 3.0 13.0 0.00 0.00 0.00 43 1010.0
20260902221628 89 240 6.0 13.0 0.00 0.00 0.00 43 1010.0
20260902220650 89 281 6.0 13.0 0.00 0.00 0.00 43 1010.1
20260902220148 89 276 4.0 11.0 0.00 0.00 0.00 43 1010.1
20260902215919 89 274 7.0 11.0 0.00 0.00 0.00 42 1010.3
20260902215408 89 271 1.0 12.0 0.00 0.00 0.00 43 1010.4
20260902214648 89 281 4.0 12.0 0.00 0.00 0.00 42 1010.2
20260902214149 89 278 3.0 11.0 0.00 0.00 0.00 43 1010.2
20260902213832 90 274 7.0 12.0 0.00 0.00 0.00 42 1010.2
20260902213711 89 286 5.0 12.0 0.00 0.00 0.00 43 1010.2
20260902213453 89 276 5.0 12.0 0.00 0.00 0.00 41 1010.2
20260902212404 90 290 5.0 15.0 0.00 0.00 0.00 43 1010.2
20260902211647 90 272 8.0 15.0 0.00 0.00 0.00 42 1010.4
20260902211146 91 281 7.0 13.0 0.00 0.00 0.00 43 1010.4
20260902210912 91 274 6.0 16.0 0.00 0.00 0.00 42 1010.5
20260902210147 92 250 8.0 18.0 0.00 0.00 0.00 41 1010.4
20260902205914 92 288 6.0 18.0 0.00 0.00 0.00 42 1010.4
20260902205409 92 25 8.0 18.0 0.00 0.00 0.00 41 1010.3
20260902204912 92 255 5.0 16.0 0.00 0.00 0.00 43 1010.5
20260902204411 92 279 7.0 16.0 0.00 0.00 0.00 42 1010.4
20260902203646 93 264 7.0 15.0 0.00 0.00 0.00 42 1010.5
20260902203147 93 281 9.0 15.0 0.00 0.00 0.00 41 1010.7
20260902202837 93 269 6.0 14.0 0.00 0.00 0.00 43 1010.5
20260902202738 93 264 5.0 14.0 0.00 0.00 0.00 42 1010.7
20260902202734 93 186 8.0 15.0 0.00 0.00 0.00 41 1010.8
20260902201146 93 220 5.0 14.0 0.00 0.00 0.00 43 1010.5
20260902200646 93 265 7.0 14.0 0.00 0.00 0.00 43 1010.8
20260902200146 92 264 6.0 14.0 0.00 0.00 0.00 44 1010.9
20260902195645 92 244 6.0 16.0 0.00 0.00 0.00 44 1011.0
20260902195404 92 307 6.0 16.0 0.00 0.00 0.00 44 1011.3
20260902195121 92 274 8.0 16.0 0.00 0.00 0.00 43 1011.4
20260902194145 92 271 6.0 13.0 0.00 0.00 0.00 44 1011.4
20260902193645 93 254 5.0 11.0 0.00 0.00 0.00 44 1011.4
20260902193411 92 264 5.0 12.0 0.00 0.00 0.00 44 1011.6
20260902193234 92 264 5.0 12.0 0.00 0.00 0.00 44 1011.6
20260902192645 92 262 7.0 12.0 0.00 0.00 0.00 43 1011.7
20260902192145 93 293 3.0 11.0 0.00 0.00 0.00 43 1011.7
20260902191645 92 265 4.0 11.0 0.00 0.00 0.00 44 1011.8
20260902191349 91 278 6.0 11.0 0.00 0.00 0.00 44 1012.1
20260902191145 91 279 6.0 11.0 0.00 0.00 0.00 45 1012.1
20260902190700 91 278 6.0 11.0 0.00 0.00 0.00 44 1012.1
20260902190144 92 237 3.0 11.0 0.00 0.00 0.00 44 1012.2
20260902185644 92 243 4.0 11.0 0.00 0.00 0.00 44 1012.3
20260902185144 92 185 4.0 9.0 0.00 0.00 0.00 46 1012.4
20260902184644 91 190 3.0 12.0 0.00 0.00 0.00 45 1012.3
20260902184144 91 275 5.0 12.0 0.00 0.00 0.00 46 1012.4
20260902183644 91 258 5.0 10.0 0.00 0.00 0.00 46 1012.4
20260902183144 91 258 4.0 10.0 0.00 0.00 0.00 45 1012.5
20260902182644 91 195 4.0 10.0 0.00 0.00 0.00 46 1012.6
20260902182142 91 247 4.0 7.0 0.00 0.00 0.00 45 1012.7
20260902181643 91 247 4.0 11.0 0.00 0.00 0.00 46 1012.7
20260902181143 91 214 6.0 11.0 0.00 0.00 0.00 45 1012.8
20260902181130 91 173 4.0 6.0 0.00 0.00 0.00 46 1012.8
20260902180408 90 231 1.0 7.0 0.00 0.00 0.00 46 1012.9
20260902180221 90 231 1.0 7.0 0.00 0.00 0.00 46 1012.9
20260902175902 91 271 2.0 4.0 0.00 0.00 0.00 46 1012.9
20260902175745 90 243 3.0 7.0 0.00 0.00 0.00 47 1012.9
20260902174643 91 299 1.0 6.0 0.00 0.00 0.00 46 1013.0
20260902174141 91 243 2.0 6.0 0.00 0.00 0.00 46 1012.9
20260902173642 91 269 3.0 4.0 0.00 0.00 0.00 46 1012.9
20260902173146 91 118 1.0 5.0 0.00 0.00 0.00 47 1013.0
20260902172641 90 193 2.0 5.0 0.00 0.00 0.00 47 1013.1
20260902172627 89 240 0.0 4.0 0.00 0.00 0.00 48 1013.1
20260902171912 90 254 0.0 4.0 0.00 0.00 0.00 47 1013.1
20260902171404 90 158 1.0 3.0 0.00 0.00 0.00 47 1013.1
20260902170641 89 172 0.0 1.0 0.00 0.00 0.00 49 1013.1
20260902170353 88 341 0.0 2.0 0.00 0.00 0.00 49 1013.3
20260902165644 89 86 1.0 3.0 0.00 0.00 0.00 47 1013.1
20260902165142 89 185 0.0 5.0 0.00 0.00 0.00 47 1013.3
20260902164641 89 158 1.0 5.0 0.00 0.00 0.00 48 1013.3
20260902164141 89 164 1.0 5.0 0.00 0.00 0.00 48 1013.3
20260902163904 89 152 2.0 4.0 0.00 0.00 0.00 48 1013.3
20260902163141 89 212 0.0 4.0 0.00 0.00 0.00 49 1013.4
20260902162859 89 265 2.0 4.0 0.00 0.00 0.00 47 1013.4
20260902162144 89 245 1.0 3.0 0.00 0.00 0.00 48 1013.4
20260902161639 89 168 0.0 3.0 0.00 0.00 0.00 48 1013.3
20260902161140 88 217 0.0 3.0 0.00 0.00 0.00 48 1013.3
20260902161114 88 158 1.0 3.0 0.00 0.00 0.00 49 1013.3
20260902160408 88 147 0.0 0.0 0.00 0.00 0.00 48 1013.3
20260902155640 88 175 0.0 0.0 0.00 0.00 0.00 49 1013.3
20260902155139 87 148 0.0 0.0 0.00 0.00 0.00 50 1013.3
20260902154640 86 162 0.0 0.0 0.00 0.00 0.00 51 1013.3
20260902154626 86 145 0.0 2.0 0.00 0.00 0.00 51 1013.3
20260902153635 86 135 0.0 4.0 0.00 0.00 0.00 51 1013.3
20260902153139 86 193 2.0 4.0 0.00 0.00 0.00 53 1013.4
20260902152638 85 124 0.0 2.0 0.00 0.00 0.00 53 1013.4
20260902152405 84 324 0.0 0.0 0.00 0.00 0.00 54 1013.3
20260902151639 84 324 0.0 0.0 0.00 0.00 0.00 56 1013.3
20260902151139 83 326 0.0 0.0 0.00 0.00 0.00 56 1013.3
20260902150638 83 326 0.0 3.0 0.00 0.00 0.00 57 1013.3
20260902150139 83 329 0.0 3.0 0.00 0.00 0.00 58 1013.1
20260902145902 82 272 0.0 2.0 0.00 0.00 0.00 59 1013.1
20260902145642 82 272 0.0 2.0 0.00 0.00 0.00 59 1013.1
20260902145135 82 295 0.0 2.0 0.00 0.00 0.00 58 1013.1
20260902144859 83 338 0.0 0.0 0.00 0.00 0.00 58 1013.1
20260902144615 82 340 0.0 0.0 0.00 0.00 0.00 59 1013.3
20260902144416 82 340 0.0 0.0 0.00 0.00 0.00 59 1013.3
20260902143638 81 338 0.0 0.0 0.00 0.00 0.00 64 1013.1
20260902143138 81 0 0.0 0.0 0.00 0.00 0.00 64 1013.1
20260902142638 80 0 0.0 0.0 0.00 0.00 0.00 66 1013.1
20260902142405 79 0 0.0 0.0 0.00 0.00 0.00 67 1013.0
20260902142136 79 0 0.0 0.0 0.00 0.00 0.00 70 1013.0
20260902141355 78 0 0.0 0.0 0.00 0.00 0.00 72 1013.0
20260902141120 77 0 0.0 0.0 0.00 0.00 0.00 72 1012.9
20260902140643 77 0 0.0 0.0 0.00 0.00 0.00 72 1012.9
20260902140628 76 0 0.0 0.0 0.00 0.00 0.00 74 1012.9
20260902135637 76 0 0.0 0.0 0.00 0.00 0.00 77 1012.8
20260902135137 75 0 0.0 0.0 0.00 0.00 0.00 76 1012.7
20260902134637 75 0 0.0 0.0 0.00 0.00 0.00 76 1012.6
20260902134137 74 0 0.0 0.0 0.00 0.00 0.00 76 1012.6
20260902133637 74 1 0.0 0.0 0.00 0.00 0.00 76 1012.6
20260902133355 73 0 0.0 0.0 0.00 0.00 0.00 76 1012.4
20260902132632 73 38 0.0 0.0 0.00 0.00 0.00 77 1012.5
20260902132136 73 41 0.0 0.0 0.00 0.00 0.00 75 1012.4
20260902131636 74 41 0.0 0.0 0.00 0.00 0.00 73 1012.4
20260902131136 74 41 0.0 0.0 0.00 0.00 0.00 72 1012.3
20260902130636 74 41 0.0 0.0 0.00 0.00 0.00 71 1012.3
20260902130136 74 39 0.0 0.0 0.00 0.00 0.00 70 1012.3
20260902125635 75 41 0.0 0.0 0.00 0.00 0.00 69 1012.3
20260902125136 75 48 0.0 0.0 0.00 0.00 0.00 69 1012.3
20260902124854 75 47 0.0 0.0 0.00 0.00 0.00 68 1012.4
20260902124131 75 66 0.0 1.0 0.00 0.00 0.00 68 1012.2
20260902123853 75 52 0.0 1.0 0.00 0.00 0.00 67 1012.1
20260902123135 74 54 0.0 0.0 0.00 0.00 0.00 68 1012.2
20260902122636 75 27 0.0 1.0 0.00 0.00 0.00 68 1012.2
20260902122135 75 39 0.0 3.0 0.00 0.00 0.00 68 1012.2
20260902121635 74 41 0.0 3.0 0.00 0.00 0.00 68 1012.1
20260902121358 74 44 1.0 3.0 0.00 0.00 0.00 68 1012.1
20260902120635 74 42 0.0 3.0 0.00 0.00 0.00 68 1012.1
20260902120131 74 39 0.0 1.0 0.00 0.00 0.00 67 1012.1
20260902115634 74 31 0.0 1.0 0.00 0.00 0.00 67 1012.1
20260902115135 74 48 0.0 0.0 0.00 0.00 0.00 68 1012.1
20260902114951 73 48 0.0 0.0 0.00 0.00 0.00 69 1012.1
20260902114834 73 28 0.0 0.0 0.00 0.00 0.00 71 1012.2
20260902113634 73 28 0.0 0.0 0.00 0.00 0.00 71 1012.1
20260902113353 72 28 0.0 0.0 0.00 0.00 0.00 72 1012.1
20260902112634 72 102 0.0 0.0 0.00 0.00 0.00 73 1012.1
20260902112133 72 102 0.0 0.0 0.00 0.00 0.00 74 1012.1
20260902111633 73 102 0.0 0.0 0.00 0.00 0.00 72 1012.1
20260902111133 73 102 0.0 0.0 0.00 0.00 0.00 72 1012.1
20260902110633 73 102 0.0 0.0 0.00 0.00 0.00 71 1012.1
20260902110133 74 102 0.0 0.0 0.00 0.00 0.00 72 1012.1
20260902105633 74 102 0.0 0.0 0.00 0.00 0.00 70 1012.1
20260902105133 74 102 0.0 0.0 0.00 0.00 0.00 69 1012.1
20260902104633 75 102 0.0 0.0 0.00 0.00 0.00 69 1012.2
20260902104349 75 110 0.0 0.0 0.00 0.00 0.00 68 1012.1
20260902103629 75 111 0.0 0.0 0.00 0.00 0.00 68 1012.1
20260902103132 76 116 0.0 0.0 0.00 0.00 0.00 67 1012.1
20260902102632 76 104 0.0 1.0 0.00 0.00 0.00 65 1012.2
20260902102132 76 103 0.0 2.0 0.00 0.00 0.00 65 1012.2
20260902101632 76 90 0.0 4.0 0.00 0.00 0.00 63 1012.2
20260902101132 76 99 0.0 4.0 0.00 0.00 0.00 63 1012.2
20260902100631 76 83 0.0 3.0 0.00 0.00 0.00 62 1012.2
20260902100131 76 109 0.0 3.0 0.00 0.00 0.00 64 1012.1
20260902095627 76 90 0.0 1.0 0.00 0.00 0.00 63 1012.0
20260902095128 76 75 0.0 0.0 0.00 0.00 0.00 63 1012.0
20260902094631 76 58 0.0 0.0 0.00 0.00 0.00 63 1012.0
20260902094131 76 87 0.0 3.0 0.00 0.00 0.00 64 1012.1
20260902093855 76 49 0.0 3.0 0.00 0.00 0.00 65 1012.1
20260902093131 76 32 0.0 3.0 0.00 0.00 0.00 66 1012.1
20260902092632 76 39 0.0 0.0 0.00 0.00 0.00 67 1012.1
20260902092131 76 39 0.0 0.0 0.00 0.00 0.00 66 1012.2
20260902091631 76 39 0.0 1.0 0.00 0.00 0.00 65 1012.2
20260902091131 75 41 0.0 1.0 0.00 0.00 0.00 66 1012.1
20260902090851 74 357 0.0 0.0 0.00 0.00 0.00 67 1012.1
20260902090130 75 357 0.0 0.0 0.00 0.00 0.00 65 1012.1
20260902085630 76 85 0.0 0.0 0.00 0.00 0.00 63 1012.1
20260902085130 76 85 0.0 0.0 0.00 0.00 0.00 62 1012.0
20260902084630 77 85 0.0 0.0 0.00 0.00 0.00 62 1012.0
20260902084129 77 85 0.0 0.0 0.00 0.00 0.00 61 1011.8
20260902083630 77 85 0.0 0.0 0.00 0.00 0.00 59 1011.8
20260902083126 78 85 0.0 3.0 0.00 0.00 0.00 58 1011.8
20260902082625 78 85 0.0 3.0 0.00 0.00 0.00 58 1011.8
20260902082129 78 38 0.0 3.0 0.00 0.00 0.00 59 1011.7
20260902081629 78 49 1.0 4.0 0.00 0.00 0.00 59 1011.7
20260902081129 78 37 1.0 4.0 0.00 0.00 0.00 60 1011.7
20260902080839 78 21 0.0 0.0 0.00 0.00 0.00 59 1011.7
20260902080719 78 37 0.0 1.0 0.00 0.00 0.00 59 1011.7
20260902075631 78 30 0.0 1.0 0.00 0.00 0.00 59 1011.8
20260902075353 78 39 0.0 1.0 0.00 0.00 0.00 58 1011.7
20260902074628 78 51 0.0 1.0 0.00 0.00 0.00 59 1011.7
20260902074608 78 35 0.0 3.0 0.00 0.00 0.00 60 1011.7
20260902073628 78 41 0.0 3.0 0.00 0.00 0.00 61 1011.7
20260902073131 78 45 0.0 3.0 0.00 0.00 0.00 62 1011.8
20260902072631 78 39 0.0 3.0 0.00 0.00 0.00 64 1011.7
20260902072128 78 32 1.0 3.0 0.00 0.00 0.00 63 1011.8
20260902071628 78 28 0.0 1.0 0.00 0.00 0.00 64 1011.8
20260902071127 78 21 0.0 1.0 0.00 0.00 0.00 64 1011.7
20260902070628 77 16 0.0 0.0 0.00 0.00 0.00 64 1011.8
20260902070124 77 52 0.0 0.0 0.00 0.00 0.00 65 1011.8
20260902065624 77 87 0.0 0.0 0.00 0.00 0.00 65 1011.7
20260902065127 77 87 0.0 0.0 0.00 0.00 0.00 64 1011.7
20260902064627 78 87 0.0 0.0 0.00 0.00 0.00 64 1011.7
20260902064127 78 87 0.0 0.0 0.00 0.00 0.00 63 1011.6
20260902063627 79 87 0.0 0.0 0.00 0.00 0.00 62 1011.7
20260902063127 79 87 0.0 1.0 0.00 0.00 0.00 61 1011.6
20260902062843 79 79 0.0 1.0 0.00 0.00 0.00 60 1011.6
20260902062123 79 100 0.0 1.0 0.00 0.00 0.00 61 1011.6
20260902062106 79 49 0.0 0.0 0.00 0.00 0.00 62 1011.5
20260902061123 79 49 0.0 1.0 0.00 0.00 0.00 61 1011.5
20260902060626 79 47 0.0 1.0 0.00 0.00 0.00 62 1011.5
20260902060126 79 45 0.0 0.0 0.00 0.00 0.00 62 1011.6
20260902055626 79 55 0.0 2.0 0.00 0.00 0.00 62 1011.6
20260902055126 79 55 0.0 2.0 0.00 0.00 0.00 63 1011.6